Home   Weather   Bundi   Past weeks

Flag for India Past Weather in Bundi, Rajasthan, India — Yesterday and Last 2 Weeks

Now
86 °F

Broken clouds.


Feels Like: 99 °F
Forecast: 79 / 89 °F
Wind: 8 mph from South

Location: Jaipur / Sanganer

Current Time: Aug 30, 2016 at 2:59:56 PM

Latest Report: Aug 30, 2016 at 2:00 PM


Visibility: 2 mi

Pressure: 29.62 "Hg

Humidity: 79%

Dew Point: 79 °F

Location of BundiLocation

Past Weather in Bundi — Graph

°F

Bundi Temperature Yesterday

Maximum temperature yesterday: 90 °F (at 2:00 PM)
Minimum temperature yesterday: 77 °F (at 2:00 AM)
Average temperature yesterday: 82 °F

High & Low Weather Summary for the Past Weeks

 TemperatureHumidityPressure
High91 °F (Aug 26, 4:30 PM)100% (Aug 20, 6:30 PM)29.92 "Hg (Aug 20, 6:30 PM)
Low73 °F (Aug 28, 8:00 AM)59% (Aug 16, 4:00 PM)29.50 "Hg (Aug 20, 3:00 PM)
Average82 °F83%29.65 "Hg
* Reported Aug 15 1:30 PM — Aug 30 1:30 PM, Bundi, Weather by CustomWeather, © 2016

Note: Actual official high and low records may vary slightly from our data, if they occured in-between our weather recording intervals... More about our weather records

Advertising

Bundi Weather History for the Previous 24 Hours

Scroll right to see more
 ConditionsComfort  
Time TempWeatherWind HumidityBarometerVisibility
1:30 PM
Tue, Aug 30
88 °FBroken clouds.7 mph70%29.65 "Hg2 mi
1:00 PM88 °FBroken clouds.7 mph75%29.65 "Hg2 mi
12:30 PM88 °FBroken clouds.5 mph70%29.68 "Hg2 mi
12:00 PM86 °FBroken clouds.6 mph75%29.68 "Hg2 mi
11:30 AM88 °FBroken clouds.6 mph75%29.68 "Hg2 mi
10:00 AM84 °FFog.6 mph79%29.71 "Hg2 mi
9:30 AM82 °FFog.6 mph84%29.71 "Hg2 mi
9:00 AM82 °FFog.7 mph84%29.71 "Hg2 mi
8:30 AM82 °FFog.1 mph89%29.68 "Hg2 mi
8:00 AM82 °FFog.2 mph89%29.65 "Hg2 mi
7:00 AM79 °FFog.1 mph100%29.65 "Hg2 mi
6:00 AM79 °FPartly cloudy.No wind94%29.65 "Hg3 mi
5:30 AM79 °FPartly cloudy.1 mph94%29.65 "Hg3 mi
5:00 AM79 °FPartly cloudy.No wind94%29.65 "Hg3 mi
3:00 AM79 °FPartly cloudy.No wind94%29.65 "Hg3 mi
2:00 AM79 °FPartly cloudy.No wind89%29.65 "Hg3 mi
1:00 AM79 °FPartly cloudy.No wind94%29.65 "Hg3 mi
12:00 AM81 °FPartly cloudy.1 mph84%29.68 "Hg3 mi
11:30 PM
Mon, Aug 29
79 °FPartly cloudy.2 mph89%29.68 "Hg3 mi
11:00 PM81 °FPartly cloudy.2 mph84%29.68 "Hg3 mi
10:00 PM81 °FPartly cloudy.1 mph89%29.71 "Hg3 mi
2:00 PM90 °FBroken clouds.9 mph71%29.68 "Hg4 mi
Weather by CustomWeather, © 2016

See weather overviewHow to use our weather pages